Date,TemperatureHighF,TemperatureAvgF,TemperatureLowF,DewpointHighF,DewpointAvgF,DewpointLowF,HumidityHigh,HumidityAvg,HumidityLow,PressureMaxIn,PressureMinIn,WindSpeedMaxMPH,WindSpeedAvgMPH,GustSpeedMaxMPH,PrecipitationSumIn
2013-1-1,47.3,43.0,39.1,46.4,41.7,35.4,97,95,87,30.12,29.99,7,0,7,1.13
2013-1-2,42.2,38.9,36.9,40.8,35.6,33.4,95,88,82,30.22,30.05,9,0,9,0.00
2013-1-3,46.9,36.7,27.8,34.0,29.8,25.2,90,77,48,30.40,30.18,10,0,10,0.00
2013-1-4,46.9,33.5,24.6,31.0,26.0,22.6,93,76,47,30.47,30.37,9,0,9,0.00
2013-1-5,47.3,36.2,25.4,37.6,29.3,23.4,94,78,51,30.43,30.26,7,0,7,0.06
2013-1-6,50.4,42.3,34.5,40.0,36.9,29.0,95,82,61,30.33,30.15,12,1,12,0.01
2013-1-7,50.6,36.2,26.1,35.2,29.4,23.8,94,78,50,30.45,30.32,9,1,9,0.00
2013-1-8,53.6,38.0,27.4,40.1,33.1,25.9,96,84,56,30.44,30.30,6,0,6,0.00
2013-1-9,50.7,47.0,40.0,49.3,45.1,37.5,96,93,86,30.48,30.34,7,0,7,0.16
2013-1-10,64.6,53.0,46.9,57.0,50.6,45.8,97,92,76,30.47,30.14,16,0,16,0.00
2013-1-11,68.7,64.8,60.8,63.9,61.2,56.6,96,88,75,30.16,30.07,18,3,19,0.10
2013-1-12,69.7,65.5,62.5,66.6,63.0,58.6,98,92,80,30.15,30.01,10,1,10,0.11
2013-1-13,68.7,64.3,52.4,62.9,60.3,49.8,96,87,77,30.11,29.96,19,2,19,1.35
2013-1-14,51.8,42.3,36.9,49.8,40.7,35.6,96,94,91,30.34,30.11,10,1,10,1.34
2013-1-15,43.5,40.8,38.9,42.7,39.9,37.8,100,96,96,30.22,30.00,9,1,10,2.81
2013-1-16,47.0,43.2,41.1,46.2,42.3,40.1,97,96,93,30.10,29.94,9,0,9,0.26
2013-1-17,42.6,39.0,34.2,41.7,36.3,30.1,97,90,82,30.37,29.88,17,2,17,0.35
2013-1-18,49.2,35.7,27.7,35.8,30.1,26.2,96,82,46,30.56,30.37,7,0,7,0.00
2013-1-19,54.7,37.9,27.9,37.6,31.4,26.6,97,80,43,30.45,30.21,11,1,16,0.00
2013-1-20,60.3,41.4,31.1,39.7,32.8,28.7,94,75,34,30.24,30.13,5,0,7,0.00
2013-1-21,48.7,36.7,27.6,30.1,23.1,16.2,93,62,30,30.26,30.12,9,1,9,0.00
2013-1-22,36.6,29.7,22.0,16.1,8.8,3.2,61,43,25,30.40,30.25,6,1,9,0.00
2013-1-23,50.0,35.7,26.8,29.2,18.7,7.7,83,51,37,30.40,30.15,8,1,13,0.00
2013-1-24,46.8,35.9,25.2,38.1,19.5,7.2,83,53,28,30.44,30.17,11,1,15,0.00
2013-1-25,33.9,31.6,25.1,32.6,26.3,10.6,95,82,44,30.39,30.12,15,0,16,0.08
2013-1-26,48.4,37.0,30.5,37.4,32.8,28.7,97,86,61,30.38,30.21,7,0,7,0.01
2013-1-27,47.6,37.6,26.7,41.1,33.2,25.2,96,85,65,30.46,30.34,6,0,6,0.01
2013-1-28,56.4,49.0,40.3,49.3,42.7,35.1,92,79,70,30.38,30.24,10,1,11,0.00
2013-1-29,54.4,50.1,43.7,53.2,48.4,42.1,97,94,87,30.26,29.88,4,0,4,0.01
2013-1-30,68.5,55.2,40.4,64.5,52.7,34.4,98,91,74,29.88,29.55,19,3,28,3.01
2013-1-31,46.0,39.4,35.0,34.5,28.0,24.7,79,64,47,30.11,29.79,20,3,21,0.00
2013-2-1,42.7,30.2,21.8,35.4,18.6,12.7,90,63,42,30.46,30.05,18,2,19,0.00
2013-2-2,37.7,29.1,21.6,32.0,24.5,16.9,90,83,68,30.40,30.10,11,1,11,0.03
2013-2-3,50.1,37.4,28.6,38.4,31.2,25.1,94,80,52,30.19,30.02,11,1,11,0.07
2013-2-4,47.6,35.9,25.4,34.6,29.0,23.4,94,77,55,30.17,29.98,9,0,9,0.00
2013-2-5,62.3,47.5,39.9,45.6,39.3,32.8,92,74,46,30.05,29.95,11,1,11,0.00
2013-2-6,64.2,45.8,32.2,41.1,35.7,30.3,96,73,30,30.22,30.05,7,0,7,0.00
2013-2-7,53.2,46.3,40.2,43.4,39.0,35.1,87,76,56,30.16,29.96,4,0,4,0.00
2013-2-8,55.0,46.0,38.8,48.8,40.2,31.6,100,81,57,30.30,29.92,8,1,12,0.10
2013-2-9,57.7,42.4,29.0,33.4,29.8,24.8,90,64,29,30.37,30.24,7,1,12,0.00
2013-2-10,62.2,46.6,37.8,47.9,38.7,30.4,96,77,35,30.26,30.00,13,1,20,0.52
2013-2-11,57.3,51.4,41.8,53.7,45.7,35.4,97,82,47,30.16,30.00,10,2,14,0.01
2013-2-12,54.9,45.0,36.6,41.3,36.1,31.1,94,74,43,30.20,29.88,10,1,14,0.03
2013-2-13,48.1,42.7,34.7,45.6,39.8,32.4,96,90,78,30.02,29.72,7,1,16,0.23
2013-2-14,57.8,44.0,34.9,40.7,36.7,33.1,94,77,49,30.11,30.00,10,1,14,0.00
2013-2-15,54.4,41.1,31.7,43.3,34.9,29.1,100,80,59,30.13,30.05,6,0,8,0.00
2013-2-16,41.1,33.9,29.4,30.3,21.9,12.6,87,62,41,30.18,30.06,7,1,13,0.00
2013-2-17,46.6,32.6,20.6,21.2,16.7,12.6,82,55,28,30.30,30.17,7,1,9,0.00
2013-2-18,60.4,42.6,24.3,33.2,26.2,18.8,84,56,35,30.32,30.00,21,2,21,0.00
2013-2-19,54.7,45.2,38.0,44.0,31.6,17.3,99,64,28,30.22,29.97,14,2,21,0.36
2013-2-20,42.0,33.5,25.6,23.1,19.5,14.5,81,58,33,30.29,30.20,7,0,9,0.00
2013-2-21,53.2,38.9,26.2,39.4,25.6,18.4,95,63,28,30.26,29.99,11,1,11,0.75
2013-2-22,50.1,45.7,40.0,47.0,43.4,38.6,97,92,84,30.09,30.01,7,1,7,0.12
2013-2-23,62.1,49.6,41.4,50.2,45.5,37.8,97,87,61,30.07,29.85,8,1,8,0.04
2013-2-24,60.2,43.4,30.1,38.0,30.3,25.1,95,65,28,30.11,29.95,11,1,11,0.00
2013-2-25,59.9,45.0,32.1,45.1,32.9,26.5,84,65,38,30.07,29.77,10,1,10,0.00
2013-2-26,54.9,47.5,41.8,47.6,43.9,36.9,96,88,69,29.78,29.51,22,3,29,0.79
2013-2-27,50.5,43.2,40.5,38.8,36.1,33.7,85,76,61,29.90,29.73,18,3,18,0.00
2013-2-28,41.7,38.7,36.6,34.1,30.1,27.5,82,71,63,30.03,29.85,11,1,11,0.00
2013-3-1,42.2,38.8,36.2,35.2,32.5,30.5,87,78,67,30.02,29.97,7,1,8,0.00
2013-3-2,39.5,36.3,32.7,33.3,29.5,25.5,90,77,66,30.09,29.97,5,1,11,0.00
2013-3-3,40.5,32.9,25.1,26.4,21.5,18.7,81,63,45,30.12,30.07,9,1,13,0.00
2013-3-4,54.2,36.8,22.0,34.4,26.2,19.1,93,69,35,30.21,29.99,6,0,9,0.00
2013-3-5,51.1,41.1,36.6,49.8,37.8,29.2,97,88,71,30.03,29.64,13,1,16,1.53
2013-3-6,37.2,34.9,32.1,32.6,29.2,26.3,96,79,76,30.28,29.91,11,1,11,0.01
2013-3-7,45.0,37.1,33.8,33.4,30.0,27.8,82,75,61,30.37,30.25,12,2,12,0.00
2013-3-8,57.1,40.9,28.4,32.5,28.6,25.3,89,65,32,30.42,30.28,14,2,14,0.00
2013-3-9,59.9,44.7,31.5,41.0,33.7,28.1,90,68,41,30.33,30.17,6,0,6,0.00
2013-3-10,72.7,55.2,39.7,42.0,36.8,32.6,89,56,25,30.17,29.99,12,1,18,0.00
2013-3-11,63.2,56.8,43.0,54.9,49.6,39.1,94,78,51,30.01,29.72,15,2,18,1.06
2013-3-12,58.4,44.9,37.2,39.5,34.4,31.1,87,68,41,30.13,29.94,11,1,12,0.01
2013-3-13,48.6,37.9,30.0,33.6,27.1,20.8,94,68,40,30.37,30.11,15,1,15,0.00
2013-3-14,52.1,38.7,27.2,34.2,22.2,17.9,75,54,29,30.43,30.26,10,1,11,0.00
2013-3-15,74.1,51.9,30.7,47.8,38.8,28.9,94,65,36,30.29,29.93,15,2,17,0.00
2013-3-16,77.9,66.1,56.4,52.1,48.2,44.0,66,53,39,29.93,29.81,14,3,21,0.00
2013-3-17,76.6,64.0,50.9,55.4,49.9,45.9,84,62,40,29.97,29.85,13,2,20,0.01
2013-3-18,62.5,57.4,52.2,57.7,53.7,49.3,97,88,69,29.91,29.75,17,3,23,1.16
2013-3-19,62.9,49.6,35.0,52.7,33.4,16.3,97,60,22,30.16,29.88,5,1,10,0.00
2013-3-20,59.8,45.0,31.7,34.9,24.1,10.3,78,47,20,30.16,29.93,12,1,13,0.00
2013-3-21,45.9,34.7,24.8,26.1,16.8,11.9,67,49,30,30.05,29.96,8,1,11,0.00
2013-3-22,45.8,37.1,27.1,31.8,23.4,17.6,77,58,42,30.10,30.01,5,0,9,0.00
2013-3-23,56.4,46.5,39.3,45.5,39.9,31.6,93,78,65,30.04,29.78,7,1,10,0.04
2013-3-24,60.9,49.1,41.8,55.4,45.9,34.0,96,89,68,29.81,29.40,20,2,20,0.83
2013-3-25,41.7,37.1,34.4,34.0,29.5,27.1,83,74,65,30.07,29.67,21,4,26,0.01
2013-3-26,42.8,37.1,33.9,31.8,28.9,26.8,86,72,58,30.32,30.06,9,1,9,0.00
2013-3-27,54.2,41.3,28.4,30.4,27.5,23.1,91,61,34,30.38,30.28,9,1,9,0.00
2013-3-28,62.2,43.1,28.1,33.6,27.7,23.1,93,60,25,30.38,30.26,9,1,9,0.00
2013-3-29,46.4,41.3,33.9,44.2,36.6,26.8,95,84,60,30.39,30.25,7,0,7,0.29
2013-3-30,59.1,49.6,43.2,51.6,46.0,41.9,96,88,67,30.26,30.01,8,1,8,0.34
2013-3-31,63.2,56.2,49.7,58.1,54.0,48.3,97,93,77,30.01,29.87,13,1,13,0.45
2013-4-1,66.5,52.5,38.1,53.6,43.6,36.9,98,75,42,30.11,29.92,9,1,11,0.01
2013-4-2,58.1,47.6,34.4,38.5,28.6,22.3,77,50,27,30.26,30.11,11,1,11,0.00
2013-4-3,59.8,49.9,36.3,30.5,25.0,20.8,68,40,24,30.29,30.18,19,2,19,0.00
2013-4-4,51.4,44.4,40.3,44.0,38.7,23.5,95,84,35,30.19,30.01,7,1,7,0.88
2013-4-5,69.3,52.4,39.8,47.7,40.3,32.8,97,69,29,30.12,30.00,14,1,14,0.00
2013-4-6,74.3,56.2,36.9,47.6,39.7,34.5,94,60,26,30.21,30.06,15,2,15,0.00
2013-4-7,75.9,61.6,47.8,50.8,45.7,39.7,78,58,36,30.18,30.05,20,2,20,0.00
2013-4-8,78.5,63.9,49.2,57.9,52.0,46.1,90,67,44,30.12,30.01,17,2,17,0.00
2013-4-9,83.0,67.2,51.0,60.9,55.3,48.8,94,68,44,30.20,30.04,19,2,19,0.00
2013-4-10,86.7,70.7,53.4,61.8,57.2,51.1,94,66,39,30.14,29.89,15,2,17,0.00
2013-4-11,82.1,71.5,61.0,66.3,59.8,56.4,96,68,47,29.92,29.55,20,3,21,1.40
2013-4-12,66.8,58.2,47.3,61.6,48.0,40.3,94,72,40,29.97,29.54,19,2,20,0.33
2013-4-13,74.1,56.3,41.3,47.3,42.1,36.5,95,65,27,30.11,29.97,6,1,8,0.00
2013-4-14,66.2,54.8,43.1,54.8,47.7,40.6,94,78,52,30.07,29.96,8,1,14,0.00
2013-4-15,77.7,64.6,55.2,60.7,56.8,53.5,95,78,52,30.11,29.94,6,1,11,0.01
2013-4-16,83.6,68.1,55.7,68.0,61.0,53.7,95,79,56,30.26,30.11,6,1,13,0.00
2013-4-17,83.2,66.2,61.0,68.4,62.2,59.4,97,88,57,30.23,30.07,15,1,30,0.25
2013-4-18,83.6,69.8,58.7,66.6,60.3,57.0,98,75,42,30.08,29.81,13,2,19,0.01
2013-4-19,74.0,58.7,46.7,64.5,50.9,36.0,95,76,60,30.13,29.69,14,2,27,1.10
2013-4-20,65.8,50.3,34.2,39.7,34.6,30.4,94,60,28,30.31,30.14,9,1,12,0.00
2013-4-21,70.7,53.7,39.7,46.0,39.0,34.5,88,61,32,30.41,30.26,7,1,11,0.00
2013-4-22,72.8,57.3,41.4,49.8,44.4,38.9,94,66,33,30.36,30.15,7,1,11,0.00
2013-4-23,74.7,60.9,45.3,53.3,48.1,43.4,94,66,40,30.25,30.04,7,1,11,0.00
2013-4-24,70.3,59.0,48.3,62.3,52.9,42.3,95,81,68,30.27,30.01,21,2,21,0.43
2013-4-25,68.1,52.6,38.5,44.0,39.7,30.7,95,66,27,30.38,30.27,8,1,12,0.00
2013-4-26,70.8,55.2,39.1,50.2,42.8,37.1,95,67,35,30.42,30.29,8,1,12,0.00
2013-4-27,56.1,53.4,51.4,53.4,51.6,47.8,97,94,75,30.39,30.13,5,0,10,1.67
2013-4-28,60.1,56.5,51.9,59.2,55.5,51.0,98,97,94,30.13,29.94,16,1,16,1.89
2013-4-29,75.3,63.3,56.0,61.0,57.5,54.3,97,83,54,30.06,29.95,10,1,10,0.00
2013-4-30,79.2,64.1,50.2,64.0,57.1,49.1,98,80,47,30.10,29.98,6,0,6,0.00
2013-5-1,80.0,67.5,56.0,64.8,59.5,54.8,97,78,50,30.22,30.10,9,1,10,0.00
2013-5-2,78.3,65.9,55.1,63.7,58.9,53.5,96,79,54,30.22,30.10,11,1,12,0.00
2013-5-3,74.7,63.0,53.9,60.9,56.7,52.3,96,81,55,30.14,29.97,14,1,14,0.00
2013-5-4,59.7,56.2,53.7,55.7,54.1,51.8,97,93,85,29.99,29.90,8,0,9,1.47
2013-5-5,57.3,54.1,50.9,56.2,53.0,49.8,100,96,93,29.91,29.79,15,1,15,2.43
2013-5-6,57.2,52.1,45.6,53.7,49.8,44.5,98,92,80,29.94,29.79,8,0,12,0.31
2013-5-7,72.0,56.6,42.4,59.3,51.1,41.3,97,84,53,30.00,29.91,7,0,8,0.03
2013-5-8,77.1,64.3,55.0,63.4,58.1,53.9,97,82,56,30.08,29.96,10,1,10,0.00
2013-5-9,82.4,67.0,53.3,67.1,59.6,52.2,97,79,48,30.14,30.03,9,1,10,0.00
2013-5-10,73.2,65.8,57.0,64.2,60.1,55.6,97,82,67,30.09,29.95,13,2,13,0.00
2013-5-11,78.0,66.8,54.0,66.4,60.0,50.3,96,80,59,30.03,29.90,10,1,10,0.03
2013-5-12,67.7,58.3,45.6,53.2,42.3,32.3,93,59,30,30.18,30.02,9,1,10,0.00
2013-5-13,70.3,54.8,39.5,45.7,39.7,33.8,96,62,29,30.28,30.15,9,1,9,0.00
2013-5-14,80.3,62.3,41.8,58.8,49.8,39.6,94,67,42,30.27,30.04,16,2,17,0.00
2013-5-15,88.9,72.0,55.7,65.4,58.3,53.0,96,65,38,30.18,30.00,10,1,11,0.00
2013-5-16,85.8,69.7,57.0,67.2,60.2,53.1,92,74,45,30.10,29.98,9,1,12,0.00
2013-5-17,80.0,69.2,61.6,69.7,64.8,60.1,97,87,67,30.12,30.02,5,0,6,0.01
2013-5-18,76.0,68.4,64.4,70.8,66.4,63.0,97,94,81,30.09,30.01,6,1,9,0.80
2013-5-19,70.4,66.6,60.2,69.5,65.6,59.2,98,97,94,30.11,30.02,13,1,15,1.05
2013-5-20,81.7,68.7,57.8,73.5,65.1,56.9,98,89,70,30.15,30.01,4,0,10,0.00
2013-5-21,87.8,70.9,63.1,76.5,67.2,61.9,98,89,60,30.07,29.93,7,0,11,0.92
2013-5-22,84.8,70.9,62.1,75.2,66.7,61.2,98,87,63,29.98,29.86,13,1,13,0.00
2013-5-23,81.8,71.0,62.2,70.7,63.4,57.6,98,78,55,30.05,29.92,9,1,9,0.01
2013-5-24,72.6,64.6,52.8,58.1,52.2,44.6,88,66,40,30.29,30.05,14,2,17,0.00
2013-5-25,75.8,61.5,46.3,58.7,49.9,44.6,97,70,35,30.37,30.18,7,1,10,0.00
2013-5-26,76.4,64.1,53.1,62.0,56.0,51.0,95,77,45,30.32,30.19,4,0,10,0.01
2013-5-27,85.5,69.2,55.2,67.4,60.3,53.8,97,76,45,30.25,30.10,10,1,13,0.00
2013-5-28,87.0,73.8,61.2,69.3,63.2,59.1,95,72,45,30.20,30.09,10,1,14,0.00
2013-5-29,86.8,73.6,60.4,71.3,64.6,58.3,95,75,50,30.24,30.11,7,1,11,0.00
2013-5-30,86.3,73.4,61.9,72.9,66.6,60.1,95,80,54,30.25,30.11,6,1,11,0.00
2013-5-31,87.0,74.9,63.4,70.8,66.6,61.6,96,77,54,30.20,30.06,16,1,16,0.00
2013-6-1,86.2,74.7,66.1,75.1,69.1,63.5,94,83,61,30.10,29.96,16,2,18,0.03
2013-6-2,79.5,72.5,67.8,73.8,70.0,66.6,97,92,77,30.00,29.89,11,1,11,1.54
2013-6-3,82.8,72.3,63.2,70.8,65.9,60.5,98,82,57,30.02,29.92,9,0,10,0.00
2013-6-4,83.9,70.5,58.8,69.6,63.5,57.6,97,80,56,30.07,29.99,7,0,8,0.00
2013-6-5,81.0,69.3,63.1,74.2,66.3,61.3,97,91,74,30.06,29.94,7,0,8,0.25
2013-6-6,82.9,71.4,63.8,73.9,67.9,62.9,98,89,69,29.96,29.77,10,1,10,0.52
2013-6-7,86.0,73.1,67.0,74.3,68.8,65.8,98,87,59,29.89,29.74,8,0,8,0.03
2013-6-8,81.8,72.0,65.4,71.3,67.3,64.4,97,86,64,30.09,29.88,9,0,9,0.01
2013-6-9,84.7,71.9,66.0,75.6,69.1,64.7,97,91,71,30.12,29.99,20,1,24,0.16
2013-6-10,83.0,74.2,69.3,73.4,69.3,67.1,97,85,62,29.99,29.90,11,3,14,0.41
2013-6-11,89.2,75.9,65.0,74.4,69.3,63.8,98,82,51,30.07,29.98,9,0,9,0.00
2013-6-12,91.5,79.9,69.3,79.9,73.8,67.8,97,83,64,30.09,29.96,7,1,8,0.00
2013-6-13,88.4,78.5,72.6,78.9,73.0,67.5,95,83,69,29.97,29.79,10,2,16,0.18
2013-6-14,84.5,72.8,60.7,68.2,62.9,59.2,97,73,50,30.07,29.93,9,1,13,0.00
2013-6-15,86.3,72.4,60.4,70.9,64.8,58.4,97,79,53,30.16,30.05,7,1,11,0.00
2013-6-16,88.3,75.4,65.1,75.6,68.8,63.0,95,81,55,30.16,30.01,10,1,13,0.08
2013-6-17,82.9,74.0,69.2,76.2,70.6,68.0,97,89,70,30.07,29.95,10,1,10,0.15
2013-6-18,78.7,71.4,65.5,74.8,69.1,64.0,97,93,78,29.98,29.88,14,1,16,0.94
2013-6-19,86.2,73.3,62.9,74.0,67.5,62.0,98,83,56,30.10,29.97,9,1,9,0.00
2013-6-20,87.2,74.5,65.0,75.9,68.7,63.8,98,83,62,30.23,30.10,9,0,10,0.00
2013-6-21,83.8,73.5,65.3,73.1,68.2,63.8,97,84,65,30.29,30.17,7,0,8,0.00
2013-6-22,87.1,74.9,65.4,74.8,68.8,64.2,97,83,57,30.27,30.11,6,0,7,0.00
2013-6-23,87.4,74.7,65.3,74.9,68.9,64.1,97,83,59,30.24,30.12,9,0,13,0.00
2013-6-24,87.2,75.4,66.5,76.5,70.6,65.3,97,86,63,30.25,30.11,5,0,8,0.06
2013-6-25,83.4,75.1,69.8,76.0,72.0,68.6,97,90,74,30.19,30.05,6,0,8,0.01
2013-6-26,88.7,78.1,69.5,79.8,73.7,68.6,98,87,69,30.09,29.90,8,1,11,0.01
2013-6-27,88.7,79.2,73.2,78.9,74.3,71.4,96,86,68,29.96,29.83,10,1,11,0.04
2013-6-28,87.0,76.8,69.4,79.1,72.8,66.8,98,88,66,29.87,29.69,6,0,9,0.01
2013-6-29,88.5,76.8,67.6,73.3,67.4,62.7,97,75,43,29.74,29.67,5,0,9,0.00
2013-6-30,87.2,74.7,64.7,73.4,66.9,62.7,95,78,50,29.85,29.71,8,0,9,0.24
2013-7-1,80.5,71.4,64.5,73.0,68.2,63.3,97,90,72,29.94,29.80,7,0,8,0.63
2013-7-2,82.8,72.3,66.7,75.0,69.2,65.7,97,90,69,30.10,29.93,9,0,11,0.22
2013-7-3,72.9,70.0,67.7,72.3,69.0,66.8,98,97,94,30.19,30.08,8,0,9,1.41
2013-7-4,74.7,70.0,67.3,73.5,69.0,66.5,98,97,91,30.19,30.09,10,1,12,1.01
2013-7-5,77.3,72.3,68.6,73.2,70.6,68.0,98,95,83,30.21,30.12,20,1,20,0.05
2013-7-6,73.5,69.9,67.8,72.6,69.1,67.0,98,97,93,30.19,30.14,18,0,18,1.79
2013-7-7,75.2,71.2,67.8,73.9,70.1,67.2,99,97,89,30.20,30.12,8,0,8,2.04
2013-7-8,86.5,76.5,70.2,78.9,73.3,69.3,98,90,72,30.24,30.12,7,0,7,0.00
2013-7-9,86.9,77.0,72.5,80.5,74.6,71.4,97,92,77,30.21,30.09,5,0,6,0.00
2013-7-10,88.9,76.8,71.3,80.4,74.1,70.3,98,92,74,30.13,29.97,6,0,9,0.15
2013-7-11,85.1,75.1,69.0,78.5,72.4,68.1,98,92,74,30.02,29.91,4,0,6,0.05
2013-7-12,84.6,74.7,66.8,74.0,69.3,64.4,98,84,63,30.01,29.94,9,1,13,0.00
2013-7-13,83.4,71.7,63.8,74.5,68.8,62.3,97,91,67,30.10,29.98,8,0,8,0.33
2013-7-14,86.4,75.0,69.1,77.6,72.5,68.2,98,92,70,30.24,30.09,6,0,9,0.42
2013-7-15,86.2,76.9,67.2,78.6,72.5,66.3,98,87,67,30.32,30.23,4,0,6,0.00
2013-7-16,90.5,79.6,69.4,78.7,73.7,68.3,98,83,61,30.37,30.26,6,0,7,0.00
2013-7-17,94.5,81.7,71.0,81.1,75.0,70.1,98,81,53,30.33,30.18,9,1,14,0.00
2013-7-18,89.2,79.4,71.2,80.0,73.6,69.3,95,83,65,30.27,30.07,4,0,7,0.00
2013-7-19,91.6,80.5,70.7,80.0,74.2,69.5,97,82,56,30.15,29.99,6,0,8,0.00
2013-7-20,91.6,80.6,71.2,79.6,74.2,69.8,96,82,59,30.06,29.93,5,0,11,0.53
2013-7-21,84.7,74.6,72.2,79.0,72.8,70.3,97,94,79,30.05,29.96,6,0,11,0.44
2013-7-22,83.3,75.1,71.7,77.8,72.5,69.6,97,92,76,30.02,29.87,14,2,19,0.16
2013-7-23,85.8,76.7,71.0,78.6,72.8,69.1,94,88,74,29.97,29.84,13,2,14,0.00
2013-7-24,86.0,75.8,69.1,77.5,72.5,67.9,96,90,68,29.93,29.85,7,0,8,0.03
2013-7-25,86.7,73.9,63.0,73.6,67.5,62.1,98,82,54,30.08,29.93,7,1,10,0.01
2013-7-26,85.6,74.0,62.9,75.7,68.7,61.7,98,84,65,30.11,30.00,6,0,11,0.00
2013-7-27,81.4,73.9,68.3,74.3,70.5,67.1,97,89,70,30.03,29.91,4,0,9,0.00
2013-7-28,84.8,73.6,64.0,70.9,67.2,61.3,97,82,53,30.11,29.95,4,0,11,0.00
2013-7-29,83.2,69.6,58.9,68.2,61.2,57.1,98,77,43,30.22,30.11,5,0,10,0.00
2013-7-30,84.3,71.6,61.2,73.0,66.5,60.0,98,85,63,30.27,30.15,5,0,7,0.00
2013-7-31,76.3,70.5,65.0,72.7,68.3,63.5,97,93,87,30.19,30.00,7,0,12,0.05
2013-8-1,85.8,76.5,68.5,76.0,71.7,66.7,98,86,63,30.03,29.97,7,0,11,0.17
2013-8-2,86.9,74.6,64.7,73.6,68.4,63.6,98,83,51,30.08,30.01,6,0,8,0.00
2013-8-3,85.0,76.0,68.1,77.0,71.6,66.6,97,87,71,30.09,30.01,4,0,7,0.00
2013-8-4,87.3,77.4,68.3,74.9,70.1,63.3,96,79,52,30.11,30.04,8,1,12,0.00
2013-8-5,85.4,73.3,61.1,72.5,66.1,59.0,97,80,44,30.12,30.00,5,0,7,0.00
2013-8-6,86.8,76.4,70.9,76.6,71.9,68.2,95,86,68,30.04,29.98,6,0,8,0.00
2013-8-7,83.4,75.4,72.0,77.4,73.1,69.9,96,93,78,30.07,29.97,7,1,12,0.04
2013-8-8,83.2,75.0,70.7,77.5,72.7,69.8,97,93,81,30.08,30.01,5,0,7,0.13
2013-8-9,91.6,76.1,70.0,80.7,73.4,69.1,98,92,63,30.11,30.03,8,1,12,0.23
2013-8-10,88.8,75.9,71.4,80.4,73.8,70.5,98,93,72,30.16,30.09,5,0,8,0.24
2013-8-11,88.9,76.1,71.0,80.2,73.6,70.1,98,92,70,30.19,30.08,9,0,11,0.97
2013-8-12,82.4,74.2,70.2,78.5,72.8,69.3,98,95,85,30.15,30.01,5,0,8,0.06
2013-8-13,85.2,76.5,70.6,77.5,72.9,69.5,98,89,70,30.01,29.91,7,1,8,0.00
2013-8-14,81.6,71.8,62.0,70.3,65.8,59.2,96,82,60,30.09,29.97,9,1,12,0.00
2013-8-15,82.2,70.2,59.6,70.7,64.0,57.2,93,81,63,30.12,30.04,6,1,10,0.00
2013-8-16,80.2,70.3,62.7,71.4,66.3,61.2,96,88,72,30.13,30.05,5,0,8,0.00
2013-8-17,75.9,69.6,65.8,70.3,66.9,64.1,97,91,78,30.17,30.10,5,0,10,1.10
2013-8-18,77.8,70.0,66.9,71.9,68.3,66.0,98,94,79,30.22,30.13,6,0,9,0.47
2013-8-19,76.7,71.7,68.4,73.2,69.9,67.5,98,94,85,30.18,30.09,4,0,7,0.03
2013-8-20,85.7,75.5,68.6,77.4,72.0,67.7,98,89,68,30.20,30.11,3,0,7,0.00
2013-8-21,80.5,73.8,70.0,75.3,71.9,69.1,98,94,81,30.24,30.15,7,0,13,0.16
2013-8-22,88.2,76.6,69.4,77.7,72.8,68.5,98,89,64,30.21,30.07,0,0,0,0.00
2013-8-23,89.2,74.9,68.3,77.9,71.1,67.1,98,89,59,30.13,30.02,13,0,20,0.08
2013-8-24,85.8,73.8,67.6,77.8,70.3,66.7,98,90,67,30.27,30.11,6,1,10,0.01
2013-8-25,84.7,73.4,64.3,71.9,67.4,63.4,98,83,59,30.40,30.27,0,0,1,0.00
2013-8-26,86.1,72.6,63.3,72.2,67.0,62.2,98,84,55,30.35,30.17,6,0,7,0.00
2013-8-27,87.7,75.2,65.1,76.0,70.0,64.0,97,85,61,30.20,30.07,0,0,0,0.00
2013-8-28,89.7,77.4,68.1,78.4,72.6,66.9,98,86,61,30.11,30.02,1,0,1,0.00
2013-8-29,91.0,79.2,70.5,81.4,74.2,69.3,97,86,61,30.06,29.96,1,0,2,0.04
2013-8-30,90.3,77.6,70.8,79.7,74.1,69.9,98,89,67,30.05,29.95,9,0,10,0.00
2013-8-31,92.3,78.9,71.5,80.9,74.7,68.4,97,88,61,30.00,29.87,9,1,10,0.02
2013-9-1,88.6,76.2,69.3,78.6,72.4,67.6,96,88,68,29.96,29.87,8,1,14,0.03
2013-9-2,87.7,77.1,69.7,77.8,72.9,68.5,97,87,68,29.99,29.87,8,1,10,0.00
2013-9-3,89.2,77.2,67.3,76.0,70.9,64.9,95,82,56,30.05,29.89,6,0,8,0.00
2013-9-4,87.8,72.6,62.4,70.7,65.5,61.2,97,80,43,30.16,30.05,5,0,9,0.00
2013-9-5,86.3,72.0,61.1,70.9,64.9,59.9,97,81,46,30.20,30.13,7,1,9,0.00
2013-9-6,88.4,73.4,62.8,70.9,65.8,61.6,97,80,45,30.21,30.10,8,1,13,0.00
2013-9-7,89.3,74.1,63.6,74.6,68.6,62.4,97,84,57,30.17,30.03,13,1,15,0.00
2013-9-8,88.3,75.6,66.3,76.9,70.7,65.1,97,86,60,30.06,29.98,4,0,6,0.00
2013-9-9,90.1,77.9,69.0,77.4,72.1,67.8,97,83,59,30.14,30.04,5,0,8,0.00
2013-9-10,91.1,77.6,68.5,76.6,71.5,67.3,97,83,51,30.26,30.14,4,0,9,0.00
2013-9-11,90.8,78.8,71.8,76.2,72.8,70.2,96,83,55,30.27,30.13,5,0,6,0.00
2013-9-12,90.3,78.7,70.3,75.8,72.4,69.1,97,82,57,30.14,29.93,7,0,8,0.02
2013-9-13,80.5,71.8,60.4,71.8,62.6,52.4,97,75,42,30.02,29.93,10,1,15,0.00
2013-9-14,79.4,64.0,52.1,61.0,54.9,50.2,94,75,46,30.11,30.01,9,1,14,0.00
2013-9-15,83.6,67.3,55.2,69.5,61.4,53.6,97,83,54,30.20,30.11,7,0,9,0.00
2013-9-16,85.5,70.9,60.0,69.3,63.5,58.7,97,80,49,30.20,30.13,4,0,10,0.00
2013-9-17,80.9,70.8,63.2,69.8,64.4,60.5,92,81,67,30.25,30.15,5,0,7,0.00
2013-9-18,79.5,70.7,63.4,69.4,64.5,60.9,93,81,63,30.26,30.14,7,0,10,0.00
2013-9-19,85.5,71.3,61.9,71.3,65.3,60.5,96,83,58,30.23,30.07,5,0,8,0.00
2013-9-20,87.6,73.8,63.6,71.3,66.3,62.4,97,80,49,30.10,29.91,7,1,12,0.00
2013-9-21,70.0,66.8,57.3,68.6,65.0,56.1,97,94,89,29.92,29.79,9,0,9,1.58
2013-9-22,78.2,63.7,52.3,62.5,57.1,51.4,98,81,51,29.95,29.86,14,1,14,0.00
2013-9-23,81.4,64.7,53.2,66.7,59.3,52.1,97,84,56,30.05,29.95,2,0,2,0.00
2013-9-24,75.0,65.9,57.9,67.0,62.3,56.8,97,89,72,30.07,29.92,7,0,8,0.00
2013-9-25,68.3,66.6,64.5,67.1,65.4,63.1,97,96,94,29.92,29.86,6,0,6,0.39
2013-9-26,80.7,69.6,61.5,69.9,65.2,59.6,98,87,57,30.05,29.91,9,0,9,0.02
2013-9-27,82.0,66.8,57.7,68.8,61.6,56.6,98,85,50,30.18,30.05,0,0,0,0.00
2013-9-28,80.3,66.4,56.7,66.8,61.4,55.5,97,85,57,30.25,30.12,6,0,6,0.00
2013-9-29,75.2,65.8,57.9,64.4,60.3,56.1,96,83,59,30.18,30.03,8,0,8,0.00
2013-9-30,79.3,64.9,55.9,65.1,59.9,54.7,97,85,55,30.12,30.02,9,0,9,0.00
2013-10-1,82.1,67.0,57.1,69.1,62.4,55.9,97,86,59,30.19,30.08,4,0,8,0.00
2013-10-2,83.2,70.0,62.3,72.6,66.1,61.1,97,88,63,30.21,30.09,6,0,6,0.00
2013-10-3,85.2,72.3,64.5,71.6,66.8,62.7,97,84,54,30.16,30.07,6,0,10,0.00
2013-10-4,83.9,69.6,60.8,72.0,65.5,59.6,97,88,62,30.21,30.11,4,0,6,0.00
2013-10-5,87.3,71.7,63.0,73.5,67.1,61.8,97,87,56,30.17,30.02,5,0,8,0.00
2013-10-6,84.9,71.6,59.3,71.3,66.5,57.0,97,85,59,30.04,29.84,18,2,19,0.08
2013-10-7,71.5,60.7,52.8,56.7,53.9,49.9,99,80,51,30.10,29.93,11,1,14,0.02
2013-10-8,74.7,60.1,49.2,59.1,52.1,46.9,95,77,50,30.17,30.09,11,1,14,0.00
2013-10-9,78.9,63.0,52.1,64.3,57.3,51.0,97,83,55,30.24,30.13,4,0,5,0.00
2013-10-10,79.2,64.2,54.5,63.1,57.5,53.3,99,81,51,30.19,30.07,10,1,12,0.00
2013-10-11,82.0,63.7,52.5,63.7,57.1,51.4,97,82,44,30.12,30.01,4,0,6,0.00
2013-10-12,83.7,64.9,53.6,66.0,58.6,52.5,97,83,45,30.15,30.05,6,0,6,0.00
2013-10-13,82.6,66.4,54.1,65.2,59.2,52.7,98,80,48,30.25,30.14,7,0,10,0.00
2013-10-14,80.9,67.3,57.1,67.4,61.8,55.9,97,84,57,30.26,30.12,6,0,10,0.00
2013-10-15,73.3,66.7,61.6,64.7,62.2,59.5,96,86,71,30.17,30.06,8,1,9,0.00
2013-10-16,69.9,64.4,60.3,64.2,60.6,57.8,96,88,76,30.09,29.98,6,0,9,0.02
2013-10-17,68.2,62.8,50.3,67.0,60.5,48.9,97,92,80,30.04,29.90,6,1,9,0.20
2013-10-18,66.3,55.1,47.7,54.5,50.0,46.6,97,85,54,30.11,29.99,7,1,9,0.00
2013-10-19,68.1,55.1,44.8,57.8,51.0,42.9,96,87,66,30.07,29.93,7,0,11,0.00
2013-10-20,66.8,49.3,38.0,49.8,43.4,36.7,97,82,48,30.14,30.05,7,0,10,0.00
2013-10-21,70.1,53.5,42.9,54.8,47.7,41.6,97,83,47,30.16,30.02,8,1,11,0.00
2013-10-22,66.6,57.4,50.3,56.3,52.3,48.0,93,84,65,30.04,29.88,4,0,8,0.00
2013-10-23,53.0,47.9,37.5,48.3,41.7,35.3,95,80,57,30.13,29.84,4,0,9,0.00
2013-10-24,57.5,46.9,36.4,44.1,40.0,34.2,94,78,57,30.32,30.12,8,1,11,0.00
2013-10-25,54.0,40.7,30.6,35.3,30.7,27.5,91,70,38,30.48,30.32,14,1,15,0.00
2013-10-26,60.0,44.4,29.8,40.0,34.1,28.2,95,71,39,30.37,30.13,13,2,15,0.00
2013-10-27,62.7,54.3,46.4,54.0,46.5,38.1,92,75,61,30.17,30.10,5,0,5,0.00
2013-10-28,62.9,56.3,51.8,57.0,53.0,-99.9,96,90,79,30.30,30.14,8,0,8,0.00
2013-10-29,68.9,57.6,49.9,60.8,54.9,48.7,97,91,73,30.37,30.24,5,0,5,0.00
2013-10-30,81.7,65.3,55.9,63.3,58.1,54.6,97,80,48,30.30,30.14,12,1,12,0.00
2013-10-31,72.5,64.6,58.2,64.8,60.5,56.1,95,87,74,30.16,29.68,28,3,28,0.05
2013-11-1,73.4,62.9,49.5,64.8,56.2,47.0,97,81,45,29.85,29.71,20,1,22,0.70
2013-11-2,67.0,51.9,43.5,50.0,44.3,40.1,97,78,41,30.14,29.84,12,0,12,0.00
2013-11-3,60.9,48.1,40.1,45.4,40.6,37.3,95,78,44,30.33,30.13,11,1,11,0.00
2013-11-4,66.1,49.6,37.1,48.6,41.7,35.4,96,76,44,30.45,30.32,7,0,7,0.00
2013-11-5,67.1,53.2,42.9,49.5,43.8,39.9,91,73,45,30.48,30.32,7,0,7,0.00
2013-11-6,71.3,60.0,46.4,60.1,53.7,43.6,92,80,65,30.33,30.10,11,0,12,0.01
2013-11-7,61.5,52.2,36.7,59.9,44.8,33.4,96,78,41,30.32,30.05,13,1,13,0.61
2013-11-8,58.2,43.1,32.6,34.9,30.6,24.6,92,67,28,30.42,30.29,11,1,11,0.00
2013-11-9,57.4,44.2,31.7,41.2,36.3,30.1,96,76,47,30.36,30.23,11,1,11,0.00
2013-11-10,69.4,51.2,37.5,48.5,39.5,31.0,93,67,32,30.35,30.25,8,0,8,0.00
2013-11-11,66.9,48.2,33.8,41.7,34.9,29.8,91,64,26,30.36,30.18,6,0,8,0.00
2013-11-12,53.4,42.1,30.2,44.2,30.9,18.1,79,65,41,30.59,30.16,14,2,20,0.00
2013-11-13,46.6,34.4,27.1,24.5,21.4,18.1,80,61,37,30.68,30.49,8,1,15,0.00
2013-11-14,57.4,37.4,24.8,33.8,26.7,21.7,94,69,28,30.51,30.30,4,0,7,0.00
2013-11-15,49.4,41.2,31.9,42.9,36.4,26.4,95,83,61,30.31,30.18,4,0,6,0.05
2013-11-16,56.4,49.5,44.3,54.2,47.9,42.9,96,94,86,30.26,30.12,5,0,8,0.01
2013-11-17,66.8,60.4,54.6,65.6,59.1,53.2,97,95,89,30.12,29.86,9,1,12,1.11
2013-11-18,66.7,56.8,42.9,61.6,44.9,34.8,96,68,32,30.20,29.90,3,0,10,0.05
2013-11-19,55.3,46.2,38.1,34.8,31.4,27.0,79,57,35,30.27,30.16,13,2,18,0.00
2013-11-20,61.6,44.8,32.1,37.8,33.3,29.4,91,67,32,30.34,30.20,7,1,11,0.00
2013-11-21,57.7,51.9,43.8,49.8,42.8,36.8,80,71,61,30.39,30.29,3,0,7,0.00
2013-11-22,58.4,56.2,54.5,56.0,53.9,49.7,96,92,80,30.33,30.21,9,1,9,0.00
2013-11-23,54.6,46.3,33.5,50.6,36.9,22.3,92,71,49,30.44,30.24,13,1,14,0.00
2013-11-24,38.9,30.8,24.5,22.2,15.0,7.9,72,54,29,30.60,30.44,11,2,20,0.00
2013-11-25,40.3,33.6,26.1,32.4,21.4,13.5,93,62,44,30.49,30.23,5,0,5,0.21
2013-11-26,42.8,38.0,33.5,41.7,36.6,31.6,96,95,91,30.23,29.78,10,1,10,2.18
2013-11-27,37.9,33.2,27.2,35.5,26.6,18.6,93,77,63,30.33,29.86,13,1,14,0.01
2013-11-28,44.6,30.3,20.2,29.4,23.2,17.5,92,76,48,30.50,30.32,7,0,7,0.00
2013-11-29,52.2,35.4,25.0,33.7,27.4,23.3,95,76,38,30.60,30.50,8,0,8,0.00
2013-11-30,53.9,37.3,27.4,36.9,30.9,25.6,95,79,50,30.55,30.32,6,0,7,0.00
2013-12-1,57.0,41.3,27.8,40.5,33.6,25.5,92,76,51,30.33,30.02,7,0,7,0.00
2013-12-2,47.9,46.4,44.3,46.7,44.6,39.8,97,94,76,30.02,29.83,4,0,4,0.06
2013-12-3,52.2,49.9,47.4,51.1,48.9,46.6,97,97,94,29.91,29.84,3,0,3,0.04
2013-12-4,67.3,57.5,51.3,62.2,55.6,50.4,98,94,82,30.00,29.89,8,0,9,0.00
2013-12-5,74.9,68.3,60.9,67.4,64.8,58.1,93,89,77,30.04,29.92,14,2,16,0.06
2013-12-6,60.7,47.0,38.3,58.0,45.5,36.8,96,95,91,30.23,29.91,10,1,11,1.53
2013-12-7,40.2,37.7,36.0,37.7,34.6,33.0,94,89,83,30.45,30.21,13,2,13,0.00
2013-12-8,44.9,39.3,35.9,44.0,38.2,34.1,97,96,93,30.37,30.10,10,0,11,1.44
2013-12-9,55.9,47.1,37.8,49.9,44.7,35.5,97,92,76,30.18,30.07,10,1,11,0.48
2013-12-10,42.7,36.2,26.6,38.3,32.2,24.8,96,86,62,30.39,30.03,9,0,9,0.35
2013-12-11,48.8,34.1,23.4,35.7,28.3,21.7,96,81,52,30.49,30.36,7,0,7,0.00
2013-12-12,42.4,32.4,25.4,28.1,22.7,17.9,86,69,38,30.56,30.43,5,0,9,0.00
2013-12-13,46.7,34.0,22.5,33.2,26.6,19.9,94,76,49,30.45,30.16,5,0,5,0.00
2013-12-14,46.7,40.9,36.9,45.9,39.0,31.4,97,93,77,30.20,29.82,9,0,9,0.64
2013-12-15,44.1,36.9,33.3,41.3,32.4,28.9,92,84,75,30.24,29.91,8,1,8,0.00
2013-12-16,52.2,39.8,31.9,38.8,33.4,29.0,92,79,59,30.27,30.12,11,1,11,0.00
2013-12-17,60.7,43.6,31.1,41.6,34.0,25.6,100,71,46,30.27,30.03,13,1,17,0.00
2013-12-18,51.2,36.9,26.4,30.9,26.1,23.3,91,67,35,30.38,30.27,8,0,9,0.00
2013-12-19,60.2,40.1,26.5,35.8,29.3,23.3,91,69,32,30.33,30.15,7,0,7,0.00
2013-12-20,62.4,50.4,36.8,51.3,40.5,31.0,83,69,53,30.20,30.07,9,0,10,0.00
2013-12-21,72.8,62.8,54.0,66.4,59.1,50.6,97,88,77,30.07,29.81,24,2,24,0.28
2013-12-22,70.0,59.3,55.8,66.4,57.5,54.4,96,94,79,30.08,29.81,20,2,23,2.05
2013-12-23,55.8,42.7,28.8,55.1,38.6,26.7,99,85,72,30.38,30.05,5,1,13,0.01
2013-12-24,37.6,31.3,24.7,28.5,23.0,17.1,93,72,47,30.52,30.37,8,1,14,0.00
2013-12-25,45.3,30.2,20.5,29.3,22.7,16.9,92,75,50,30.49,30.34,4,0,8,0.00
2013-12-26,50.9,35.7,25.8,34.4,27.7,23.2,90,74,47,30.42,30.32,4,0,7,0.00
2013-12-27,53.2,35.7,25.8,34.4,27.7,23.3,94,76,32,30.50,30.38,3,0,5,0.00
2013-12-28,42.7,35.2,27.3,38.1,32.3,25.2,96,90,69,30.42,29.98,4,0,7,0.79
2013-12-29,49.4,42.6,37.1,45.7,40.8,35.8,97,93,80,30.07,29.90,7,1,9,0.89
2013-12-30,42.5,38.8,35.7,41.2,34.8,31.7,97,86,76,30.25,30.06,7,0,9,0.00
2013-12-31,43.7,33.1,26.6,32.3,27.8,25.0,95,82,55,30.48,30.24,4,0,8,0.00
2014-1-1,48.5,33.5,25.0,36.3,29.3,23.2,100,86,58,30.37,30.10,6,0,9,0.00
2014-1-2,45.0,35.9,23.0,44.2,32.6,15.7,97,88,73,30.25,29.80,11,1,14,0.43